Hourly Data Report for May 22, 2022

VICTORIA UNIVERSITY CS
BRITISH COLUMBIA
Current Station Operator: ECCC - MSC

48°27'25.200" N
123°18'16.600" W
60.10 m
1018598
71783
WYJ

Download Data

Hourly Data (May 2022)
Hourly Data Report for May 22, 2022
TIME
LST
Temp Definition
°C
Dew Point Definition
°C
Rel Hum Definition
%
Precip. Amount Definition
mm

Wind Dir Definition
10's deg

Wind Spd Definition
km/h
Visibility Definition
km
Stn Press Definition
kPa
Hmdx Definition


Wind Chill Definition


Weather Definition


00:00 10.4 5.8 73 0.0 25 4   101.61     LegendNANA
01:00 8.9 5.8 81 0.0 0 1   101.62     LegendNANA
02:00 6.7 5.1 89 0.0 7 2   101.63     LegendNANA
03:00 6.2 5.1 93 0.0 27 2   101.65     LegendNANA
04:00 6.3 5.7 96 0.0 26 2   101.66     LegendNANA
05:00 6.2 5.5 96 0.0 28 2   101.67     LegendNANA
06:00 9.0 7.3 89 0.0 0 1   101.71     LegendNANA
07:00 10.8 8.6 86 0.0 11 2   101.74     LegendNANA
08:00 11.3 8.0 80 0.0 8 5   101.74     LegendNANA
09:00 13.0 6.9 66 0.0 16 6   101.74     LegendNANA
10:00 13.3 7.5 68 0.0 12 4   101.74     LegendNANA
11:00 13.4 7.8 69 0.0 10 4   101.71     LegendNANA
12:00 16.2 9.0 62 0.0 19 5   101.68     LegendNANA
13:00 16.8 6.0 49 0.0 16 5   101.65     LegendNANA
14:00 18.4 5.9 44 0.0 20 6   101.60     LegendNANA
15:00 16.5 6.1 50 0.0 20 5   101.55     LegendNANA
16:00 18.3 7.0 47 0.0 21 6   101.50     LegendNANA
17:00 18.8 7.5 48 0.0 24 6   101.42     LegendNANA
18:00 18.6 4.5 39 0.0 25 6   101.39     LegendNANA
19:00 17.3 2.9 38 0.0 26 6   101.38     LegendNANA
20:00 15.4 4.6 48 0.0 25 6   101.37     LegendNANA
21:00 14.1 5.3 55 0.0 26 3   101.39     LegendNANA
22:00 13.5 6.1 61 0.0 0 1   101.39     LegendNANA
23:00 13.6 5.0 56 0.0 26 2   101.38     LegendNANA

Notes on Data Quality.

Legend

  • E = Estimated
  • M = Missing
  • NA = Not Available*
  • [empty] = Indicates an unobserved value
Date modified: